| time (UTC) | temp F | wind direction | speed MPH | gust MPH | rain 1hr in | rain 24hr in | rain mn in | humidity % | barometer mb |
| 20260831183004 | 74 | 4 | 3.0 | 6.0 | 0.00 | 0.00 | 0.00 | 50 | 1010.0 |
| 20260831182504 | 74 | 10 | 2.0 | 6.0 | 0.00 | 0.00 | 0.00 | 52 | 1010.0 |
| 20260831182005 | 74 | 12 | 4.0 | 8.0 | 0.00 | 0.00 | 0.00 | 49 | 1010.1 |
| 20260831181004 | 73 | 52 | 2.0 | 3.0 | 0.00 | 0.00 | 0.00 | 53 | 1010.1 |
| 20260831180504 | 73 | 262 | 1.0 | 3.0 | 0.00 | 0.00 | 0.00 | 54 | 1010.3 |
| 20260831180004 | 73 | 309 | 1.0 | 5.0 | 0.00 | 0.00 | 0.00 | 54 | 1010.3 |
| 20260831175504 | 73 | 19 | 3.0 | 6.0 | 0.00 | 0.00 | 0.00 | 54 | 1010.4 |
| 20260831175004 | 72 | 32 | 2.0 | 3.0 | 0.00 | 0.00 | 0.00 | 56 | 1010.4 |
| 20260831174504 | 72 | 47 | 1.0 | 2.0 | 0.00 | 0.00 | 0.00 | 56 | 1010.5 |
| 20260831174005 | 72 | 64 | 3.0 | 6.0 | 0.00 | 0.00 | 0.00 | 56 | 1010.5 |
| 20260831173005 | 71 | 55 | 1.0 | 3.0 | 0.00 | 0.00 | 0.00 | 58 | 1010.6 |
| 20260831172504 | 70 | 17 | 1.0 | 5.0 | 0.00 | 0.00 | 0.00 | 59 | 1010.6 |
| 20260831172004 | 70 | 6 | 2.0 | 3.0 | 0.00 | 0.00 | 0.00 | 60 | 1010.7 |
| 20260831171504 | 69 | 28 | 3.0 | 3.0 | 0.00 | 0.00 | 0.00 | 61 | 1010.7 |
| 20260831171004 | 69 | 20 | 2.0 | 3.0 | 0.00 | 0.00 | 0.00 | 61 | 1010.8 |
| 20260831170005 | 68 | 6 | 2.0 | 2.0 | 0.00 | 0.00 | 0.00 | 62 | 1010.9 |
| 20260831165504 | 68 | 20 | 1.0 | 3.0 | 0.00 | 0.00 | 0.00 | 63 | 1010.9 |
| 20260831165004 | 67 | 327 | 2.0 | 5.0 | 0.00 | 0.00 | 0.00 | 63 | 1011.0 |
| 20260831164504 | 67 | 11 | 2.0 | 5.0 | 0.00 | 0.00 | 0.00 | 64 | 1011.1 |
| 20260831164004 | 67 | 23 | 2.0 | 5.0 | 0.00 | 0.00 | 0.00 | 64 | 1011.2 |
| 20260831163005 | 66 | 331 | 2.0 | 3.0 | 0.00 | 0.00 | 0.00 | 64 | 1011.2 |
| 20260831162505 | 66 | 4 | 2.0 | 5.0 | 0.00 | 0.00 | 0.00 | 65 | 1011.3 |
| 20260831162004 | 66 | 0 | 3.0 | 6.0 | 0.00 | 0.00 | 0.00 | 66 | 1011.2 |
| 20260831161504 | 66 | 21 | 2.0 | 5.0 | 0.00 | 0.00 | 0.00 | 66 | 1011.3 |
| 20260831160504 | 65 | 24 | 2.0 | 5.0 | 0.00 | 0.00 | 0.00 | 68 | 1011.4 |
| 20260831160004 | 65 | 22 | 3.0 | 6.0 | 0.00 | 0.00 | 0.00 | 67 | 1011.3 |
| 20260831155504 | 65 | 352 | 2.0 | 6.0 | 0.00 | 0.00 | 0.00 | 68 | 1011.4 |
| 20260831155004 | 64 | 352 | 3.0 | 5.0 | 0.00 | 0.00 | 0.00 | 70 | 1011.4 |
| 20260831154004 | 62 | 86 | 1.0 | 2.0 | 0.00 | 0.00 | 0.00 | 74 | 1011.5 |
| 20260831153004 | 61 | 34 | 1.0 | 2.0 | 0.00 | 0.00 | 0.00 | 77 | 1011.5 |
| 20260831152504 | 60 | 13 | 1.0 | 2.0 | 0.00 | 0.00 | 0.00 | 79 | 1011.5 |
| 20260831152004 | 59 | 84 | 1.0 | 2.0 | 0.00 | 0.00 | 0.00 | 80 | 1011.6 |
| 20260831151504 | 58 | 84 | 1.0 | 2.0 | 0.00 | 0.00 | 0.00 | 81 | 1011.6 |
| 20260831151004 | 57 | 84 | 0.0 | 1.0 | 0.00 | 0.00 | 0.00 | 82 | 1011.6 |
| 20260831150504 | 57 | 85 | 0.0 | 1.0 | 0.00 | 0.00 | 0.00 | 82 | 1011.7 |
| 20260831150005 | 57 | 86 | 1.0 | 2.0 | 0.00 | 0.00 | 0.00 | 82 | 1011.7 |
| 20260831145506 | 56 | 94 | 1.0 | 2.0 | 0.00 | 0.00 | 0.00 | 82 | 1011.7 |
| 20260831145005 | 56 | 94 | 1.0 | 2.0 | 0.00 | 0.00 | 0.00 | 82 | 1011.7 |
| 20260831144505 | 56 | 94 | 1.0 | 2.0 | 0.00 | 0.00 | 0.00 | 82 | 1011.7 |
| 20260831144004 | 56 | 94 | 1.0 | 2.0 | 0.00 | 0.00 | 0.00 | 82 | 1011.8 |
| 20260831143504 | 55 | 103 | 1.0 | 2.0 | 0.00 | 0.00 | 0.00 | 82 | 1011.7 |
| 20260831143005 | 55 | 144 | 1.0 | 2.0 | 0.00 | 0.00 | 0.00 | 83 | 1011.7 |
| 20260831142504 | 55 | 144 | 0.0 | 2.0 | 0.00 | 0.00 | 0.00 | 83 | 1011.8 |
| 20260831142004 | 55 | 144 | 0.0 | 2.0 | 0.00 | 0.00 | 0.00 | 83 | 1011.7 |
| 20260831141005 | 55 | 144 | 0.0 | 2.0 | 0.00 | 0.00 | 0.00 | 82 | 1011.8 |
| 20260831140505 | 55 | 144 | 0.0 | 2.0 | 0.00 | 0.00 | 0.00 | 82 | 1011.8 |
| 20260831140005 | 55 | 144 | 1.0 | 2.0 | 0.00 | 0.00 | 0.00 | 82 | 1011.8 |
| 20260831135505 | 55 | 144 | 0.0 | 2.0 | 0.00 | 0.00 | 0.00 | 81 | 1011.7 |
| 20260831135004 | 55 | 146 | 0.0 | 2.0 | 0.00 | 0.00 | 0.00 | 81 | 1011.7 |
| 20260831134504 | 55 | 146 | 0.0 | 2.0 | 0.00 | 0.00 | 0.00 | 80 | 1011.7 |
| 20260831133504 | 56 | 123 | 1.0 | 2.0 | 0.00 | 0.00 | 0.00 | 79 | 1011.8 |
| 20260831133004 | 56 | 111 | 1.0 | 2.0 | 0.00 | 0.00 | 0.00 | 78 | 1011.7 |
| 20260831132504 | 57 | 89 | 1.0 | 2.0 | 0.00 | 0.00 | 0.00 | 77 | 1011.8 |
| 20260831132004 | 57 | 10 | 1.0 | 2.0 | 0.00 | 0.00 | 0.00 | 76 | 1011.8 |
| 20260831131504 | 58 | 46 | 0.0 | 1.0 | 0.00 | 0.00 | 0.00 | 75 | 1011.9 |
| 20260831131005 | 59 | 46 | 0.0 | 2.0 | 0.00 | 0.00 | 0.00 | 74 | 1011.9 |
| 20260831130504 | 59 | 39 | 0.0 | 1.0 | 0.00 | 0.00 | 0.00 | 73 | 1012.0 |
| 20260831130005 | 59 | 6 | 1.0 | 3.0 | 0.00 | 0.00 | 0.00 | 73 | 1011.9 |
| 20260831125504 | 60 | 347 | 1.0 | 2.0 | 0.00 | 0.00 | 0.00 | 73 | 1011.9 |
| 20260831125005 | 60 | 351 | 1.0 | 3.0 | 0.00 | 0.00 | 0.00 | 72 | 1011.9 |
| 20260831124504 | 60 | 329 | 1.0 | 3.0 | 0.00 | 0.00 | 0.00 | 73 | 1012.0 |
| 20260831124004 | 60 | 329 | 1.0 | 3.0 | 0.00 | 0.00 | 0.00 | 73 | 1012.0 |
| 20260831123504 | 60 | 328 | 1.0 | 3.0 | 0.00 | 0.00 | 0.00 | 73 | 1011.9 |
| 20260831123005 | 60 | 330 | 2.0 | 3.0 | 0.00 | 0.00 | 0.00 | 73 | 1012.0 |
| 20260831122504 | 60 | 326 | 2.0 | 3.0 | 0.00 | 0.00 | 0.00 | 73 | 1012.0 |
| 20260831122004 | 60 | 329 | 1.0 | 2.0 | 0.00 | 0.00 | 0.00 | 73 | 1012.2 |
| 20260831121504 | 60 | 325 | 1.0 | 2.0 | 0.00 | 0.00 | 0.00 | 73 | 1012.2 |
| 20260831121004 | 60 | 332 | 2.0 | 2.0 | 0.00 | 0.00 | 0.00 | 73 | 1012.2 |
| 20260831120504 | 60 | 19 | 0.0 | 2.0 | 0.00 | 0.00 | 0.00 | 72 | 1012.2 |
| 20260831120004 | 60 | 19 | 1.0 | 2.0 | 0.00 | 0.00 | 0.00 | 72 | 1012.3 |
| 20260831115004 | 61 | 326 | 1.0 | 3.0 | 0.00 | 0.00 | 0.00 | 72 | 1012.4 |
| 20260831114504 | 61 | 335 | 1.0 | 3.0 | 0.00 | 0.00 | 0.00 | 72 | 1012.4 |
| 20260831114004 | 61 | 328 | 1.0 | 2.0 | 0.00 | 0.00 | 0.00 | 72 | 1012.3 |
| 20260831113504 | 61 | 328 | 2.0 | 3.0 | 0.00 | 0.00 | 0.00 | 72 | 1012.3 |
| 20260831113004 | 61 | 354 | 2.0 | 3.0 | 0.00 | 0.00 | 0.00 | 72 | 1012.4 |
| 20260831112504 | 61 | 328 | 1.0 | 2.0 | 0.00 | 0.00 | 0.00 | 72 | 1012.4 |
| 20260831112004 | 61 | 333 | 2.0 | 3.0 | 0.00 | 0.00 | 0.00 | 72 | 1012.5 |
| 20260831111504 | 61 | 331 | 1.0 | 2.0 | 0.00 | 0.00 | 0.00 | 72 | 1012.6 |
| 20260831111004 | 61 | 324 | 2.0 | 3.0 | 0.00 | 0.00 | 0.00 | 72 | 1012.5 |
| 20260831110504 | 61 | 338 | 1.0 | 2.0 | 0.00 | 0.00 | 0.00 | 71 | 1012.5 |
| 20260831110004 | 61 | 323 | 1.0 | 2.0 | 0.00 | 0.00 | 0.00 | 71 | 1012.5 |
| 20260831105504 | 61 | 331 | 2.0 | 2.0 | 0.00 | 0.00 | 0.00 | 71 | 1012.5 |
| 20260831105004 | 61 | 325 | 1.0 | 2.0 | 0.00 | 0.00 | 0.00 | 71 | 1012.5 |
| 20260831104504 | 61 | 330 | 2.0 | 2.0 | 0.00 | 0.00 | 0.00 | 71 | 1012.5 |
| 20260831104004 | 61 | 329 | 2.0 | 3.0 | 0.00 | 0.00 | 0.00 | 71 | 1012.6 |
| 20260831103504 | 61 | 333 | 2.0 | 5.0 | 0.00 | 0.00 | 0.00 | 71 | 1012.6 |
| 20260831103004 | 61 | 327 | 2.0 | 3.0 | 0.00 | 0.00 | 0.00 | 72 | 1012.6 |
| 20260831102504 | 61 | 334 | 1.0 | 3.0 | 0.00 | 0.00 | 0.00 | 72 | 1012.7 |
| 20260831102004 | 61 | 326 | 2.0 | 3.0 | 0.00 | 0.00 | 0.00 | 72 | 1012.7 |
| 20260831101504 | 61 | 332 | 2.0 | 5.0 | 0.00 | 0.00 | 0.00 | 73 | 1012.8 |
| 20260831101004 | 60 | 327 | 2.0 | 3.0 | 0.00 | 0.00 | 0.00 | 73 | 1012.9 |
| 20260831100504 | 60 | 329 | 1.0 | 2.0 | 0.00 | 0.00 | 0.00 | 74 | 1013.0 |
| 20260831095504 | 60 | 312 | 1.0 | 3.0 | 0.00 | 0.00 | 0.00 | 73 | 1013.2 |
| 20260831093504 | 61 | 314 | 1.0 | 1.0 | 0.00 | 0.00 | 0.00 | 72 | 1013.4 |
| 20260831093004 | 61 | 313 | 1.0 | 2.0 | 0.00 | 0.00 | 0.00 | 72 | 1013.4 |
| 20260831092504 | 61 | 353 | 0.0 | 2.0 | 0.00 | 0.00 | 0.00 | 72 | 1013.4 |
| 20260831092004 | 61 | 321 | 1.0 | 2.0 | 0.00 | 0.00 | 0.00 | 72 | 1013.3 |
| 20260831091504 | 61 | 354 | 1.0 | 2.0 | 0.00 | 0.00 | 0.00 | 72 | 1013.3 |
| 20260831091004 | 62 | 353 | 1.0 | 2.0 | 0.00 | 0.00 | 0.00 | 72 | 1013.4 |
| 20260831090504 | 62 | 350 | 2.0 | 2.0 | 0.00 | 0.00 | 0.00 | 72 | 1013.5 |
| 20260831090004 | 62 | 352 | 1.0 | 2.0 | 0.00 | 0.00 | 0.00 | 71 | 1013.6 |
| 20260831085504 | 62 | 358 | 1.0 | 2.0 | 0.00 | 0.00 | 0.00 | 72 | 1013.6 |
| 20260831085004 | 62 | 318 | 1.0 | 3.0 | 0.00 | 0.00 | 0.00 | 71 | 1013.6 |
| 20260831084504 | 62 | 347 | 2.0 | 3.0 | 0.00 | 0.00 | 0.00 | 72 | 1013.7 |
| 20260831084004 | 62 | 352 | 1.0 | 2.0 | 0.00 | 0.00 | 0.00 | 72 | 1013.7 |
| 20260831083504 | 62 | 326 | 1.0 | 2.0 | 0.00 | 0.00 | 0.00 | 72 | 1013.8 |
| 20260831083004 | 62 | 331 | 2.0 | 2.0 | 0.00 | 0.00 | 0.00 | 71 | 1013.8 |
| 20260831082504 | 62 | 323 | 2.0 | 3.0 | 0.00 | 0.00 | 0.00 | 71 | 1013.9 |
| 20260831082004 | 63 | 341 | 1.0 | 3.0 | 0.00 | 0.00 | 0.00 | 71 | 1013.9 |
| 20260831080504 | 63 | 344 | 1.0 | 3.0 | 0.00 | 0.00 | 0.00 | 71 | 1014.0 |
| 20260831080004 | 63 | 320 | 2.0 | 5.0 | 0.00 | 0.00 | 0.00 | 71 | 1014.1 |
| 20260831075004 | 63 | 321 | 1.0 | 3.0 | 0.00 | 0.00 | 0.00 | 70 | 1014.3 |
| 20260831074504 | 63 | 336 | 2.0 | 3.0 | 0.00 | 0.00 | 0.00 | 70 | 1014.2 |
| 20260831073504 | 63 | 332 | 3.0 | 6.0 | 0.00 | 0.00 | 0.00 | 70 | 1014.2 |
| 20260831073004 | 63 | 333 | 2.0 | 6.0 | 0.00 | 0.00 | 0.00 | 70 | 1014.3 |
| 20260831072504 | 63 | 329 | 2.0 | 6.0 | 0.00 | 0.00 | 0.00 | 70 | 1014.3 |
| 20260831072004 | 63 | 341 | 2.0 | 6.0 | 0.00 | 0.00 | 0.00 | 70 | 1014.4 |
| 20260831071504 | 63 | 330 | 3.0 | 5.0 | 0.00 | 0.00 | 0.00 | 70 | 1014.4 |
| 20260831071004 | 63 | 331 | 3.0 | 6.0 | 0.00 | 0.00 | 0.00 | 70 | 1014.4 |
| 20260831070504 | 63 | 353 | 3.0 | 7.0 | 0.00 | 0.00 | 0.00 | 70 | 1014.4 |
| 20260831070004 | 63 | 333 | 3.0 | 6.0 | 0.00 | 0.00 | 0.00 | 70 | 1014.4 |
| 20260831065505 | 63 | 335 | 3.0 | 6.0 | 0.00 | 0.00 | 0.00 | 70 | 1014.5 |
| 20260831065004 | 64 | 319 | 3.0 | 7.0 | 0.00 | 0.00 | 0.00 | 70 | 1014.6 |
| 20260831064504 | 64 | 325 | 3.0 | 6.0 | 0.00 | 0.00 | 0.00 | 70 | 1014.7 |
| 20260831064004 | 64 | 334 | 3.0 | 5.0 | 0.00 | 0.00 | 0.00 | 70 | 1014.7 |
| 20260831063504 | 64 | 328 | 4.0 | 6.0 | 0.00 | 0.00 | 0.00 | 70 | 1014.7 |
| 20260831063004 | 64 | 330 | 2.0 | 6.0 | 0.00 | 0.00 | 0.00 | 70 | 1014.9 |
| 20260831062504 | 64 | 330 | 3.0 | 7.0 | 0.00 | 0.00 | 0.00 | 70 | 1014.9 |
| 20260831062004 | 64 | 344 | 3.0 | 8.0 | 0.00 | 0.00 | 0.00 | 70 | 1015.0 |
| 20260831061504 | 64 | 326 | 3.0 | 6.0 | 0.00 | 0.00 | 0.00 | 70 | 1015.1 |
| 20260831061004 | 64 | 335 | 3.0 | 8.0 | 0.00 | 0.00 | 0.00 | 69 | 1015.1 |
| 20260831060504 | 64 | 326 | 3.0 | 7.0 | 0.00 | 0.00 | 0.00 | 69 | 1015.1 |
| 20260831055504 | 64 | 325 | 4.0 | 8.0 | 0.00 | 0.00 | 0.00 | 69 | 1015.2 |
| 20260831055004 | 64 | 330 | 3.0 | 6.0 | 0.00 | 0.00 | 0.00 | 69 | 1015.3 |
| 20260831054504 | 64 | 320 | 4.0 | 7.0 | 0.00 | 0.00 | 0.00 | 69 | 1015.4 |
| 20260831054004 | 64 | 324 | 3.0 | 7.0 | 0.00 | 0.00 | 0.00 | 69 | 1015.3 |
| 20260831053503 | 64 | 327 | 5.0 | 7.0 | 0.00 | 0.00 | 0.00 | 68 | 1015.4 |
| 20260831053004 | 64 | 339 | 3.0 | 6.0 | 0.00 | 0.00 | 0.00 | 68 | 1015.6 |
| 20260831052504 | 64 | 326 | 3.0 | 7.0 | 0.00 | 0.00 | 0.00 | 68 | 1015.6 |
| 20260831052004 | 65 | 329 | 3.0 | 6.0 | 0.00 | 0.00 | 0.00 | 68 | 1015.7 |
| 20260831051504 | 65 | 329 | 4.0 | 9.0 | 0.00 | 0.00 | 0.00 | 67 | 1015.7 |
| 20260831051003 | 65 | 338 | 3.0 | 7.0 | 0.00 | 0.00 | 0.00 | 67 | 1015.7 |
| 20260831050503 | 65 | 334 | 3.0 | 6.0 | 0.00 | 0.00 | 0.00 | 67 | 1015.7 |
| 20260831050004 | 65 | 328 | 3.0 | 7.0 | 0.00 | 0.00 | 0.00 | 67 | 1015.8 |
| 20260831045504 | 65 | 331 | 4.0 | 6.0 | 0.00 | 0.00 | 0.00 | 67 | 1015.8 |
| 20260831045004 | 65 | 321 | 2.0 | 6.0 | 0.00 | 0.00 | 0.00 | 67 | 1015.9 |
| 20260831044004 | 65 | 321 | 2.0 | 5.0 | 0.00 | 0.00 | 0.00 | 66 | 1015.9 |
| 20260831043504 | 65 | 337 | 2.0 | 3.0 | 0.00 | 0.00 | 0.00 | 66 | 1016.0 |
| 20260831043003 | 65 | 316 | 3.0 | 8.0 | 0.00 | 0.00 | 0.00 | 66 | 1016.0 |
| 20260831042504 | 65 | 349 | 3.0 | 5.0 | 0.00 | 0.00 | 0.00 | 66 | 1016.0 |
| 20260831042004 | 65 | 330 | 3.0 | 5.0 | 0.00 | 0.00 | 0.00 | 66 | 1015.9 |
| 20260831041504 | 65 | 323 | 3.0 | 6.0 | 0.00 | 0.00 | 0.00 | 66 | 1015.9 |
| 20260831041004 | 65 | 333 | 3.0 | 8.0 | 0.00 | 0.00 | 0.00 | 66 | 1015.9 |
| 20260831040004 | 65 | 334 | 2.0 | 5.0 | 0.00 | 0.00 | 0.00 | 65 | 1016.0 |
| 20260831035504 | 65 | 322 | 3.0 | 5.0 | 0.00 | 0.00 | 0.00 | 65 | 1016.0 |
| 20260831035003 | 65 | 333 | 3.0 | 5.0 | 0.00 | 0.00 | 0.00 | 65 | 1016.0 |
| 20260831034504 | 65 | 333 | 2.0 | 3.0 | 0.00 | 0.00 | 0.00 | 65 | 1015.9 |
| 20260831034004 | 65 | 312 | 2.0 | 3.0 | 0.00 | 0.00 | 0.00 | 65 | 1016.0 |
| 20260831033504 | 65 | 328 | 2.0 | 5.0 | 0.00 | 0.00 | 0.00 | 65 | 1016.0 |
| 20260831033004 | 66 | 336 | 2.0 | 3.0 | 0.00 | 0.00 | 0.00 | 65 | 1016.0 |
| 20260831032504 | 66 | 324 | 2.0 | 3.0 | 0.00 | 0.00 | 0.00 | 64 | 1016.0 |
| 20260831032004 | 66 | 358 | 2.0 | 3.0 | 0.00 | 0.00 | 0.00 | 64 | 1016.0 |
| 20260831031504 | 66 | 324 | 2.0 | 3.0 | 0.00 | 0.00 | 0.00 | 64 | 1016.0 |
| 20260831030504 | 67 | 329 | 3.0 | 8.0 | 0.00 | 0.00 | 0.00 | 63 | 1016.0 |
| 20260831025504 | 67 | 331 | 3.0 | 6.0 | 0.00 | 0.00 | 0.00 | 62 | 1016.1 |
| 20260831025004 | 67 | 344 | 3.0 | 6.0 | 0.00 | 0.00 | 0.00 | 62 | 1016.1 |
| 20260831024504 | 67 | 328 | 4.0 | 8.0 | 0.00 | 0.00 | 0.00 | 62 | 1016.2 |
| 20260831024003 | 68 | 330 | 3.0 | 5.0 | 0.00 | 0.00 | 0.00 | 61 | 1016.1 |
| 20260831023504 | 68 | 333 | 3.0 | 7.0 | 0.00 | 0.00 | 0.00 | 60 | 1016.2 |
| 20260831023004 | 68 | 339 | 3.0 | 7.0 | 0.00 | 0.00 | 0.00 | 60 | 1016.2 |
| 20260831022504 | 68 | 339 | 4.0 | 10.0 | 0.00 | 0.00 | 0.00 | 60 | 1016.2 |
| 20260831022004 | 69 | 339 | 4.0 | 9.0 | 0.00 | 0.00 | 0.00 | 59 | 1016.3 |
| 20260831021504 | 69 | 349 | 6.0 | 12.0 | 0.00 | 0.00 | 0.00 | 58 | 1016.3 |
| 20260831021004 | 69 | 340 | 5.0 | 13.0 | 0.00 | 0.00 | 0.00 | 58 | 1016.3 |
| 20260831020503 | 69 | 336 | 6.0 | 9.0 | 0.00 | 0.00 | 0.00 | 57 | 1016.3 |
| 20260831015503 | 70 | 341 | 6.0 | 9.0 | 0.00 | 0.00 | 0.00 | 56 | 1016.3 |
| 20260831015004 | 70 | 336 | 6.0 | 10.0 | 0.00 | 0.00 | 0.00 | 56 | 1016.3 |
| 20260831014004 | 71 | 334 | 5.0 | 12.0 | 0.00 | 0.00 | 0.00 | 55 | 1016.4 |
| 20260831013504 | 71 | 333 | 6.0 | 13.0 | 0.00 | 0.00 | 0.00 | 55 | 1016.5 |
| 20260831013004 | 71 | 335 | 6.0 | 10.0 | 0.00 | 0.00 | 0.00 | 54 | 1016.4 |
| 20260831012504 | 72 | 347 | 5.0 | 10.0 | 0.00 | 0.00 | 0.00 | 53 | 1016.5 |
| 20260831012004 | 72 | 335 | 6.0 | 12.0 | 0.00 | 0.00 | 0.00 | 53 | 1016.5 |
| 20260831011504 | 72 | 332 | 5.0 | 10.0 | 0.00 | 0.00 | 0.00 | 52 | 1016.5 |
| 20260831011003 | 73 | 329 | 3.0 | 9.0 | 0.00 | 0.00 | 0.00 | 52 | 1016.5 |
| 20260831010005 | 73 | 340 | 6.0 | 12.0 | 0.00 | 0.00 | 0.00 | 52 | 1016.6 |
| 20260831005504 | 73 | 338 | 5.0 | 10.0 | 0.00 | 0.00 | 0.00 | 51 | 1016.7 |
| 20260831005005 | 73 | 340 | 5.0 | 9.0 | 0.00 | 0.00 | 0.00 | 51 | 1016.7 |
| 20260831004505 | 73 | 328 | 3.0 | 8.0 | 0.00 | 0.00 | 0.00 | 51 | 1016.7 |
| 20260831004006 | 73 | 332 | 6.0 | 10.0 | 0.00 | 0.00 | 0.00 | 50 | 1016.7 |
| 20260831003505 | 74 | 344 | 5.0 | 8.0 | 0.00 | 0.00 | 0.00 | 51 | 1016.7 |
| 20260831002505 | 74 | 358 | 5.0 | 8.0 | 0.00 | 0.00 | 0.00 | 50 | 1016.8 |
| 20260831002006 | 74 | 344 | 5.0 | 10.0 | 0.00 | 0.00 | 0.00 | 50 | 1016.8 |
| 20260831001505 | 74 | 350 | 4.0 | 9.0 | 0.00 | 0.00 | 0.00 | 50 | 1016.7 |
| 20260831001005 | 74 | 332 | 3.0 | 12.0 | 0.00 | 0.00 | 0.00 | 50 | 1016.7 |
| 20260831000505 | 74 | 343 | 6.0 | 9.0 | 0.00 | 0.00 | 0.00 | 49 | 1016.7 |
| 20260831000005 | 74 | 329 | 6.0 | 12.0 | 0.00 | 0.00 | 0.00 | 48 | 1016.7 |
| 20260830235505 | 74 | 347 | 3.0 | 6.0 | 0.00 | 0.00 | 0.00 | 48 | 1016.7 |
| 20260830235005 | 74 | 341 | 3.0 | 9.0 | 0.00 | 0.00 | 0.00 | 48 | 1016.8 |
| 20260830234506 | 75 | 325 | 2.0 | 9.0 | 0.00 | 0.00 | 0.00 | 48 | 1016.8 |
| 20260830234005 | 74 | 356 | 3.0 | 7.0 | 0.00 | 0.00 | 0.00 | 48 | 1016.9 |
| 20260830233505 | 74 | 337 | 4.0 | 7.0 | 0.00 | 0.00 | 0.00 | 48 | 1016.8 |
| 20260830233005 | 74 | 354 | 5.0 | 10.0 | 0.00 | 0.00 | 0.00 | 48 | 1016.9 |
| 20260830232505 | 74 | 331 | 5.0 | 9.0 | 0.00 | 0.00 | 0.00 | 47 | 1017.0 |
| 20260830231505 | 75 | 346 | 5.0 | 8.0 | 0.00 | 0.00 | 0.00 | 47 | 1017.1 |
| 20260830231005 | 74 | 21 | 3.0 | 6.0 | 0.00 | 0.00 | 0.00 | 48 | 1017.1 |
| 20260830230505 | 74 | 330 | 4.0 | 7.0 | 0.00 | 0.00 | 0.00 | 48 | 1017.2 |
| 20260830230005 | 74 | 10 | 3.0 | 8.0 | 0.00 | 0.00 | 0.00 | 47 | 1017.3 |
| 20260830225505 | 75 | 337 | 2.0 | 5.0 | 0.00 | 0.00 | 0.00 | 48 | 1017.5 |
| 20260830225005 | 74 | 340 | 3.0 | 8.0 | 0.00 | 0.00 | 0.00 | 48 | 1017.5 |
| 20260830223505 | 74 | 10 | 2.0 | 5.0 | 0.00 | 0.00 | 0.00 | 48 | 1017.6 |
| 20260830223005 | 73 | 20 | 2.0 | 7.0 | 0.00 | 0.00 | 0.00 | 48 | 1017.7 |
| 20260830222505 | 73 | 333 | 4.0 | 9.0 | 0.00 | 0.00 | 0.00 | 48 | 1017.9 |
| 20260830222005 | 74 | 351 | 5.0 | 9.0 | 0.00 | 0.00 | 0.00 | 47 | 1018.0 |
| 20260830221505 | 74 | 345 | 3.0 | 8.0 | 0.00 | 0.00 | 0.00 | 47 | 1018.0 |
| 20260830221005 | 73 | 325 | 3.0 | 7.0 | 0.00 | 0.00 | 0.00 | 48 | 1018.0 |
| 20260830220505 | 73 | 326 | 3.0 | 8.0 | 0.00 | 0.00 | 0.00 | 48 | 1018.1 |
| 20260830215505 | 74 | 30 | 3.0 | 8.0 | 0.00 | 0.00 | 0.00 | 47 | 1018.2 |
| 20260830215005 | 74 | 6 | 3.0 | 6.0 | 0.00 | 0.00 | 0.00 | 48 | 1018.3 |
| 20260830214005 | 72 | 327 | 2.0 | 8.0 | 0.00 | 0.00 | 0.00 | 49 | 1018.4 |
| 20260830213504 | 72 | 330 | 5.0 | 8.0 | 0.00 | 0.00 | 0.00 | 48 | 1018.4 |
| 20260830213005 | 73 | 326 | 3.0 | 8.0 | 0.00 | 0.00 | 0.00 | 48 | 1018.5 |
| 20260830212006 | 73 | 333 | 3.0 | 8.0 | 0.00 | 0.00 | 0.00 | 48 | 1018.7 |
| 20260830211006 | 72 | 12 | 2.0 | 7.0 | 0.00 | 0.00 | 0.00 | 49 | 1018.8 |
| 20260830210005 | 73 | 304 | 3.0 | 6.0 | 0.00 | 0.00 | 0.00 | 48 | 1018.8 |
| 20260830205505 | 71 | 319 | 2.0 | 7.0 | 0.00 | 0.00 | 0.00 | 49 | 1018.8 |
| 20260830205005 | 71 | 2 | 2.0 | 8.0 | 0.00 | 0.00 | 0.00 | 50 | 1018.9 |
| 20260830204005 | 71 | 322 | 3.0 | 5.0 | 0.00 | 0.00 | 0.00 | 49 | 1019.1 |
| 20260830203005 | 71 | 313 | 3.0 | 8.0 | 0.00 | 0.00 | 0.00 | 50 | 1019.0 |
| 20260830202504 | 70 | 273 | 4.0 | 8.0 | 0.00 | 0.00 | 0.00 | 50 | 1019.0 |
| 20260830202005 | 71 | 352 | 3.0 | 6.0 | 0.00 | 0.00 | 0.00 | 49 | 1019.1 |
| 20260830201505 | 71 | 44 | 5.0 | 9.0 | 0.00 | 0.00 | 0.00 | 49 | 1019.3 |
| 20260830200505 | 71 | 2 | 2.0 | 5.0 | 0.00 | 0.00 | 0.00 | 50 | 1019.3 |
| 20260830200005 | 70 | 44 | 2.0 | 6.0 | 0.00 | 0.00 | 0.00 | 51 | 1019.3 |
| 20260830195505 | 69 | 340 | 2.0 | 6.0 | 0.00 | 0.00 | 0.00 | 51 | 1019.4 |
| 20260830195005 | 69 | 32 | 2.0 | 5.0 | 0.00 | 0.00 | 0.00 | 52 | 1019.4 |
| 20260830193505 | 68 | 324 | 3.0 | 7.0 | 0.00 | 0.00 | 0.00 | 52 | 1019.6 |
| 20260830193005 | 68 | 344 | 3.0 | 7.0 | 0.00 | 0.00 | 0.00 | 54 | 1019.7 |
| 20260830192005 | 68 | 31 | 1.0 | 5.0 | 0.00 | 0.00 | 0.00 | 55 | 1019.9 |
| 20260830191505 | 68 | 357 | 2.0 | 8.0 | 0.00 | 0.00 | 0.00 | 55 | 1019.9 |
| 20260830191006 | 68 | 107 | 3.0 | 7.0 | 0.00 | 0.00 | 0.00 | 54 | 1019.9 |
| 20260830190505 | 68 | 30 | 5.0 | 8.0 | 0.00 | 0.00 | 0.00 | 55 | 1020.0 |
| 20260830190004 | 68 | 58 | 4.0 | 8.0 | 0.00 | 0.00 | 0.00 | 56 | 1020.0 |
| 20260830185005 | 67 | 0 | 1.0 | 8.0 | 0.00 | 0.00 | 0.00 | 56 | 1020.1 |
| 20260830184505 | 68 | 54 | 5.0 | 9.0 | 0.00 | 0.00 | 0.00 | 56 | 1020.1 |
| 20260830184005 | 67 | 9 | 2.0 | 7.0 | 0.00 | 0.00 | 0.00 | 58 | 1020.2 |